Location: Bersatichello
(44.5667°N, 10.2667°E)
Time: 12:05:52
(UTC+00:00)

Daily predictions for brighter satellites

Satellite Brightness Start Highest point End
(mag) Time Altitude Azimuth Time Altitude Azimuth Time Altitude Azimuth
CZ-4B R/B 3.5 17:46:58 10° SE 17:52:24 51° ENE 17:57:52 10° N
USA 186 3.6 17:54:45 10° E 17:56:21 13° ENE 17:57:57 10° NE
COSMO-SKYMED 1 3.5 17:52:30 10° N 17:56:45 54° WNW 18:00:58 10° SSW
Cosmos 2333 Rocket 2.6 17:51:51 10° NNW 17:57:26 46° ENE 18:02:57 10° SE
CZ-4C R/B 3.4 17:54:58 10° NNE 17:58:42 82° WNW 18:02:37 10° SSW
Cosmos 2228 Rocket 3.7 17:55:05 10° NNW 17:59:38 65° W 18:04:08 10° S
Cosmos 2056 Rocket 4.1 17:58:49 10° SSE 18:03:20 32° E 18:07:51 10° NE
Cosmos 1536 2.8 17:59:28 10° S 18:03:23 89° W 18:07:21 10° N
GEOS 3 Rocket 3.8 17:59:14 10° NE 18:04:40 87° NW 18:10:02 10° SW
Meteor 2-9 Rocket 4.5 18:00:55 10° SSE 18:06:08 43° E 18:11:16 10° NNE
Cosmos 1833 4.2 18:02:04 10° S 18:07:32 60° ESE 18:13:04 10° NNE
Cosmos 2219 Rocket 2.8 18:02:49 10° NNW 18:08:08 38° NE 18:13:23 10° ESE
CZ-4 R/B 1.5 18:04:30 10° SSE 18:08:09 48° ENE 18:11:53 10° N
COSMOS 2428 3.9 18:03:38 10° N 18:08:22 26° NE 18:13:04 10° ESE
MINOTAUR 4 R/B 4.4 18:06:13 10° NNE 18:09:28 40° E 18:12:41 10° S
Cosmos 1666 Rocket 3.7 18:06:33 10° S 18:10:57 83° W 18:15:20 10° N
Cosmos 1459 Rocket 4.5 18:05:27 10° N 18:11:01 37° ENE 18:16:33 10° SE
Cosmos 1707 3.5 18:07:54 10° NNE 18:11:17 30° ENE 18:14:38 10° SE
Cosmos 1933 Rocket 4.4 18:08:04 10° SSE 18:11:44 27° E 18:15:24 10° NNE
USA 307 2.9 18:11:04 10° NW 18:14:50 54° NNE 18:18:12 12° ESE
USA 305 3.0 18:11:17 10° NW 18:15:01 51° NNE 18:18:19 13° ESE
Cosmos 1624 Rocket 4.3 18:12:11 10° S 18:17:10 44° ESE 18:22:11 10° NNE
CENTAUR R/B 3.8 18:10:17 10° NNW 18:17:49 42° NE 18:25:33 12° ESE
Resurs 01 Rocket 3.4 18:17:19 11° E 18:19:21 15° ENE 18:21:51 10° NNE
FALCON 9 R/B 4.2 18:16:38 10° SSW 18:20:43 20° SSE 18:30:16 10° ESE
USA 281 3.6 18:14:46 10° NNE 18:21:19 71° WNW 18:27:49 10° SW
Okean 1-7 3.5 18:18:11 10° N 18:22:20 39° ENE 18:26:25 10° SSE
Cosmos 1862 Rocket 3.7 18:18:23 10° N 18:22:51 80° W 18:27:18 10° S
PSLV R/B 4.3 18:19:37 10° S 18:23:35 64° WSW 18:27:34 10° NNW
SL-16 R/B 3.8 18:20:30 10° NW 18:25:42 38° WSW 18:30:53 10° S
Cosmos 1420 Rocket 4.2 18:21:03 10° S 18:26:04 49° ESE 18:31:05 10° NNE
Meteor 1-23 Rocket 4.1 18:22:07 10° N 18:27:42 82° ENE 18:33:15 10° SSE
Cosmos 1633 Rocket 3.7 18:27:35 10° SSW 18:31:54 60° W 18:36:17 10° N
Okean 3 3.6 18:27:55 10° N 18:32:01 50° ENE 18:36:07 10° SSE
Iridium 4 Rocket 4.0 18:32:24 10° NNE 18:35:55 25° ENE 18:37:44 19° ESE
Cosmos 1674 2.9 18:32:44 10° N 18:36:20 46° ENE 18:39:54 10° SSE
Cosmos 2098 Rocket 4.1 18:33:00 10° SSE 18:37:30 36° E 18:42:55 10° NNE
Cosmos 1437 Rocket 3.0 18:33:41 10° SSW 18:37:43 79° W 18:41:49 10° N
Cosmos 2360 Rocket 2.7 18:32:47 10° NNW 18:38:24 64° WSW 18:43:58 10° S
Cosmos 676 Rocket 4.1 18:39:25 10° NNW 18:44:34 56° ENE 18:48:49 15° SE
Cosmos 2123 Rocket 4.3 18:39:21 10° SSE 18:45:15 46° E 18:51:14 10° NNE
Resurs 1-3 3.7 18:41:03 10° SSE 18:45:17 53° ENE 18:49:34 10° N
BREEZE-M DEB (TANK) 4.3 18:42:00 10° W 18:45:38 63° N 18:58:05 10° ENE
Cosmos 2016 Rocket 4.2 18:39:58 10° N 18:45:49 45° ENE 18:51:21 11° SSE
USA 308 2.5 18:42:43 10° NW 18:46:30 90° NE 18:48:34 25° SE
Okean-O 3.1 18:43:42 18° SE 18:46:37 40° ENE 18:50:46 10° N
Cosmos 1703 Rocket 3.6 18:43:04 10° N 18:47:31 62° E 18:51:53 10° SSE
Tiangong 0.7 18:48:44 10° SW 18:49:39 11° SSW 18:50:34 10° SSW
BREEZE M DEB (TANK) 3.0 18:49:03 10° W 18:51:41 37° NNW 18:52:43 23° NE
Cosmos 2173 Rocket 4.0 18:45:38 10° N 18:52:03 79° E 18:58:25 10° SSE
Cosmos 1190 Rocket 4.1 18:48:37 10° NNW 18:53:49 75° WSW 18:59:00 10° SSE
Cosmos 1000 Rocket 4.4 18:48:21 10° S 18:54:30 81° E 19:00:39 10° N
Landsat 5 4.0 18:54:05 10° NE 18:57:17 31° E 18:57:17 31° E
Cosmos 2100 Rocket 4.0 18:51:09 10° N 18:57:34 90° E 19:03:54 10° S
Cosmos 1470 Rocket 4.4 18:53:24 10° SSW 18:57:46 53° WNW 19:02:11 10° N
EXPRESS MD2 2.1 18:56:56 10° WNW 18:59:04 60° SSW 18:59:08 60° SSW
Cosmos 1733 3.5 18:58:05 30° SE 18:59:17 40° E 19:02:50 10° NNE
Okean O Rocket 2.4 18:55:56 10° S 19:00:15 53° W 19:04:35 10° NNW
Cosmos 2242 Rocket 3.8 18:58:07 10° N 19:02:36 52° ENE 19:04:48 27° SE
Cosmos 1726 3.6 19:08:38 21° NE 19:08:38 21° NE 19:10:08 10° NNE
Cosmos 1954 Rocket 4.0 19:03:11 10° NNW 19:08:27 81° WSW 19:12:50 15° SSE
Landsat 7 3.9 19:05:09 10° S 19:09:51 78° WSW 19:14:35 10° NNW
Meteor 1-21 4.2 19:06:41 10° NNW 19:12:19 85° W 19:17:57 10° S
NOSS 0 Rocket 4.2 19:07:18 10° NNW 19:13:19 49° ENE 19:15:43 33° ESE
Exosat Rocket 4.0 19:09:13 10° SSW 19:14:15 70° WNW 19:20:29 10° NNE
Cosmos 1867 4.3 19:10:49 10° S 19:14:32 31° SE 19:14:32 31° SE
Helios 1B 4.4 19:11:53 10° NNE 19:16:15 84° ESE 19:20:34 10° SSW
Terra 4.0 19:18:08 11° NE 19:18:08 11° NE 19:18:39 10° NE
SL-27 R/B 3.0 19:14:33 10° SSW 19:17:47 54° WNW 19:21:02 10° N
ISS -2.1 19:15:57 10° W 19:18:59 30° NNW 19:20:08 24° NNE
SL-8 R/B 3.7 19:15:17 10° WNW 19:20:04 72° SSW 19:21:31 44° SE
USA 306 3.8 19:17:41 10° WNW 19:21:07 34° SW 19:22:14 28° S
CSL-04 Rocket 3.9 19:16:34 10° S 19:22:06 74° WSW 19:27:41 10° NNW
Ariane Rocket 4.1 19:22:38 27° ENE 19:22:38 27° ENE 19:26:40 10° N
Cosmos 1975 3.3 19:19:09 10° SSW 19:23:02 60° W 19:26:59 10° N
Cosmos 2237 Rocket 2.8 19:19:43 10° NNW 19:24:55 36° NE 19:25:47 34° ENE
SJ-6B 4.4 19:24:16 10° SSW 19:27:54 34° W 19:31:31 10° NNW
USA 186 3.6 19:26:12 15° SSW 19:28:09 30° W 19:30:56 10° NNW
Cosmos 1626 4.1 19:26:00 10° NNW 19:29:05 28° W 19:32:08 10° SSW
Meteor 2-10 3.8 19:24:52 10° S 19:29:54 79° E 19:34:57 10° NNE
Cosmos 1818 3.6 19:24:48 10° NW 19:30:15 76° WSW 19:32:27 37° SSE
Cosmos 2061 Rocket 4.0 19:24:17 10° N 19:30:47 80° E 19:34:58 23° SSE
Cosmos 2322 4.1 19:30:35 10° NNW 19:36:10 61° WSW 19:39:23 25° S
MOS 1 4.2 19:39:28 48° SE 19:41:01 71° ENE 19:46:44 10° N
Cosmos 2333 Rocket 4.0 19:36:33 10° NW 19:41:27 29° WSW 19:46:20 10° SSW
Cosmos 2233 Rocket 3.8 19:35:45 10° N 19:41:55 75° E 19:44:06 42° SSE
CZ-4C R/B 4.4 19:37:17 10° NNW 19:42:21 22° NNE 19:45:25 17° ENE
Cosmos 1805 3.4 19:43:24 69° NW 19:43:24 69° NW 19:47:00 10° N
CZ-4 R/B 4.3 19:41:30 10° WSW 19:43:19 13° W 19:45:09 10° WNW
Cosmos 1980 3.8 19:40:06 10° NNW 19:45:41 53° ENE 19:46:05 52° ENE
SL-14 R/B 3.6 19:44:00 10° N 19:47:11 58° NNW 19:47:11 58° NNW
MetOp-A 4.0 19:48:16 65° E 19:48:36 67° ENE 19:53:51 10° N
NOSS 3-2 (A) 4.1 19:42:01 10° NW 19:49:37 87° SW 19:53:10 40° SSE
MetOp-B 4.2 19:51:49 58° ENE 19:51:49 58° ENE 19:57:00 10° N
Cosmos 2219 Rocket 3.5 19:46:53 10° NW 19:52:01 36° WSW 19:56:03 15° SSW
SPOT 1/Viking Rocket 3.8 19:50:10 35° S 19:52:16 64° WSW 19:57:27 10° NNW
USA 307 4.4 19:49:41 10° WNW 19:52:43 25° SW 19:52:43 25° SW
USA 305 4.3 19:49:41 10° WNW 19:52:42 26° SW 19:52:42 26° SW
COSMOS 2428 3.1 19:47:23 10° NNW 19:53:01 59° WSW 19:55:08 37° S
BREEZE-M DEB (TANK) 3.7 19:48:24 10° WNW 19:52:45 40° NNW 19:52:45 40° NNW
Resurs 01 Rocket 1.9 19:54:51 59° SW 19:55:18 63° WSW 19:59:43 10° NNW
NOSS 3-2 (C) 4.1 19:50:32 10° NW 19:58:00 67° NE 20:00:13 50° ESE
Okean 2 4.3 19:59:02 10° NNW 20:02:55 45° W 20:02:56 45° W
Cosmos 1850 Rocket 4.0 19:57:49 10° NNW 20:03:10 80° WSW 20:03:29 76° SSW
Cosmos 2297 Rocket 3.7 20:08:56 23° NE 20:08:56 23° NE 20:11:02 10° NNE
H-2A R/B 3.9 20:08:15 33° N 20:08:15 33° N 20:10:50 10° N
CENTAUR R/B 3.4 20:00:53 10° NW 20:09:10 69° WSW 20:12:44 40° S
USA 238 DEB 3.9 20:03:54 10° NW 20:11:11 65° NE 20:12:16 59° E
USA 238 3.9 20:04:00 10° NW 20:11:17 64° NE 20:12:21 58° E
Cosmos 1110 Rocket 4.4 20:12:51 55° N 20:12:51 55° N 20:16:55 10° NNE
BREEZE-M DEB (TANK) 3.5 20:15:57 10° WNW 20:21:44 54° N 20:21:44 54° N
Cosmos 1452 Rocket 4.3 20:17:58 10° SW 20:23:04 49° WNW 20:28:13 10° NNE
SL-16 R/B 3.4 20:26:47 10° NNW 20:30:33 33° NNE 20:30:33 33° NNE
Cosmos 1464 Rocket 4.4 20:30:12 10° N 20:35:08 53° NNE 20:35:08 53° NNE
Terra 3.8 20:56:52 23° NNW 20:56:52 23° NNW 20:58:41 10° NNW
ADEOS Rocket 3.5 20:58:19 58° N 20:58:19 58° N 21:03:41 10° NNW
Cosmos 2237 Rocket 3.6 21:03:49 10° NW 21:07:36 33° WNW 21:07:36 33° WNW
FALCON 9 R/B 4.4 21:17:32 10° W 21:25:41 28° SW 21:25:41 28° SW
CZ-4C R/B 3.6 21:25:16 10° NNW 21:30:34 48° N 21:30:34 48° N
ATLAS 3B R/B 4.4 21:42:00 10° NNW 21:48:14 27° NNE 21:48:14 27° NNE
Cosmos 2297 Rocket 4.3 21:50:34 22° NW 21:50:34 22° NW 21:54:23 10° N
